Location: Bangkok
(13.7500°N, 100.5170°E)
Time: 01:32:04
(UTC+07:00)

Hubble Space Telescope - Visible Passes

Search period start: 23 December 2014 00:00
Search period end: 02 January 2015 00:00
Orbit: 545 x 549 km, 28.5° (Epoch: 21 December)

Date Brightness Start Highest point End Pass type
(mag) Time Alt. Az. Time Alt. Az. Time Alt. Az.
23 Dec 1.6 18:39:59 10° NW 18:43:46 33° NNE 18:46:16 18° ENE visible
23 Dec 3.7 20:21:09 10° WNW 20:21:50 14° W 20:21:50 14° W visible
24 Dec 1.2 18:32:04 10° NW 18:36:03 44° NNE 18:39:50 11° E visible
24 Dec 3.2 20:13:37 10° W 20:15:25 22° WSW 20:15:25 22° WSW visible
25 Dec 0.8 18:24:12 10° NW 18:28:19 63° NNE 18:32:26 10° ESE visible
25 Dec 3.0 20:06:15 10° W 20:09:11 23° SW 20:09:11 23° SW visible
26 Dec 0.8 18:16:22 10° WNW 18:20:32 89° NNE 18:24:42 10° ESE visible
26 Dec 3.4 19:59:09 10° WSW 20:01:46 16° SSW 20:03:08 14° S visible
27 Dec 3.8 19:52:46 10° SW 19:53:56 11° SSW 19:55:07 10° SSW visible
31 Dec 3.7 05:46:54 10° S 05:49:15 15° SSE 05:51:35 10° ESE visible
01 Jan 3.3 05:38:12 10° SSW 05:41:22 21° SSE 05:44:32 10° E visible
